Main page
METAR-TAF:

METAR-TAF

Airports :

Tafraoui, Algeria

Oran Tafraoui Airport

latitude: 35-32-33N, longitude: 000-31-56W, elevation: 112 m

Current weather observation

The report was made 45 minutes ago, at 03:00 UTC
Calm wind
Temperature 16°C
Humidity 68%
Pressure 1021 hPa
Visibility 10 km or more
no clouds below 1500 m and no cumulonimbus

METAR: DAOL 200300Z 00000KT CAVOK 16/10 Q1021

Time: 04:45 (03:45 UTC)


TAF: missing

Weather observations and forecasts of more than 4000 airports (METAR and TAF reports).

The available stations are represented by yellow and red dots on the map.

Hover mouse over dot to see the name of the station.

Then click to see weather observations and forecasts.

To change the map : click on the green buttons with a black cross to zoom in, on the green button with a dash to zoom out, or on the green arrows for adjacent maps.


METAR-TAF: